Location: Santa Giusta
(39.8800°N, 8.6069°E)
Time: 17:44:00
(UTC+00:00)

Cosmos 841 Rocket - Pass Details

Date: 02 February 2023
Orbit: 746 x 770 km, 74.0° (Epoch: 01 April)

Event Time Altitude Azimuth Distance (km) Brightness Sun altitude
Rises 19:11:58 0° 337° (NNW) 3,252 7.1 -28.3°
Reaches altitude 10° 19:14:23 10° 334° (NNW) 2,320 6.3 -28.7°
Maximum altitude 19:19:34 61° 255° (WSW) 867 3.9 -29.7°
Enters shadow 19:19:44 61° 245° (WSW) 869 3.9 -29.8°
